Retour au catalogue

SL-12 R/B(2)

ActifLEO
NORAD 15334·ROCKET BODY·🇷🇺 Russia

Lancé Sep 28, 1984 depuis Baikonur Cosmodrome

Loading…

Prochains Passages (prochaines 24 heures)

TLE

FraisSource: Space-Track

Époque: Sep 14, 2026, 03:23 UTC

1 15334U 84106B   26257.14114137 -.00000210  00000-0 -82875-4 0  9998
2 15334  71.0022 152.4795 0005557 236.8967 123.1623 14.15674241 46504

Suivez SL-12 R/B(2) en temps réel avec AllMySat

Download on the App Store